Powrót do katalogu

STARLINK-35349

AktywnyŁącznośćVLEO
NORAD 65835·PAYLOAD·🇺🇸 United States

Wystrzelony Sep 29, 2025 z Vandenberg Space Force Base

Loading…

Następne Przeloty (najbliższe 24 godziny)

TLE

ŚwieżeSource: CelesTrak SupGP

Epoka: Sep 14, 2026, 20:44 UTC

1 65835C 25221N   26257.86437500  .00018305  00000+0  54112-3 0  2573
2 65835  53.1576 287.8571 0001160  86.1169 221.9883 15.34364776    13

Śledź STARLINK-35349 w czasie rzeczywistym z AllMySat

Download on the App Store